Volver al catálogo

ATLAS 2A CENTAUR R/B

ActivoHEO
NORAD 26053·ROCKET BODY·🇺🇸 United States

Lanzado Jan 21, 2000 desde Cape Canaveral Space Force Station

Loading…

Próximos Pases (próximas 24 horas)

TLE

ActualizadoSource: Space-Track

Época: Sep 13, 2026, 18:28 UTC

1 26053U 00001B   26256.76958674  .00007357  00000-0  99828-3 0  9991
2 26053  26.0377  60.9044 5727808 242.0281  49.4560  4.47285813329893

Sigue ATLAS 2A CENTAUR R/B en tiempo real con AllMySat

Download on the App Store